FENGYUN 1C DEB, 31165

Orbit data source: Space-Track

FENGYUN 1C DEB, 31165 is space debris in SSO originally from a launch on Mon, 10 May 1999 UTC launched from the Taiyaun Space Center, China (TSC). Fengyun 1C debris stems from the Chinese weather satellite Fengyun-1C, which was intentionally destroyed by a Chinese anti-satellite missile in 2007. This event dramatically increased the amount of space debris, with thousands of trackable fragments posing hazards to satellites and human spaceflight. The Fengyun 1C debris cloud has become a focal point in discussions about space sustainability and the need for international regulations to prevent the creation of new debris.

Loading next visibility...
Identifier
31165, 1999-025BHT
Orbit
SSO
Country
Flag of CNCN / PRC
Related business
Manufacturer
Unknown
Mission
Spacecraft
Bus & Motor
Unknown
Mass
Unknown
Launch date (UTC)
1999-05-10 (27 years ago)
Launch vehicle
Unknown
Launch site
Taiyaun Space Center, China (TSC)
Object type
Payload
Rocket body
Debris
Shape & HBR
Unknown shape, 0.1 m
Radar Cross Section
Small (<0.1 m²)

Expand to show TLE details & history
Last TLE update: 16 hours ago

TLE from 16 hours ago
0 FENGYUN 1C DEB
1 31165U 99025BHT 26255.08676019  .00003382  00000-0  49777-3 0  9991
2 31165  98.8644 345.0343 0066270 101.3255  19.3486 14.74691972 27692
Epoch: 2026-09-12T02:04Z
TLE epoch observation values (Epoch: 2026-09-12T02:04:56.080Z)
Latitude
58.05056°
Longitude
157.1014°
Altitude
611.997 km
Speed
7.582 km/s
True Right ascension
11h 57m 44s
True Declination
57° 53' 34"
Sunlit
Object was in daylight at epoch
Visualization orbit readout
Latitude
Unknown
Longitude
Unknown
Altitude
Unknown
Speed
Unknown
Apparent Right ascension
Unknown
Apparent Declination
Unknown
Sunlit
N/A
Visualization observer readout
Local Sidereal Time
10:18:14
Azimuth
Unknown
Elevation
Unknown
Doppler factor
Unknown
Orbital elements
Apogee altitude
689.753 km
Perigee altitude
596.692 km
Semi-major axis
7,021.36 km
Eccentricity
0.00663
Inclination
98.8644°
RAAN
345.0343°
Arg. of periapsis
101.3255°
True anomaly
19.60218°
Mean anomaly
19.3486°
Eccentric anomaly
19.47519°
Mean motion
3.68902 °/min
Orbital period
97.59 mins
BSTAR
0.00049777
Loading maneuver chart data...
Computing Atmospheric mass density...

Documentation

Showing up to 5 results
|